Location: Llanfihangel-Ystrad
(52.1833°N, 4.1667°W)
Time: 01:32:45
(UTC+00:00)

ADEOS - Pass Details

Date: 17 February 2020
Orbit: 793 x 794 km, 98.9° (Epoch: 05 April)

Event Time Altitude Azimuth Distance (km) Brightness Sun altitude
Rises 04:17:01 0° 17° (NNE) 3,310 7.3 -29.8°
Reaches altitude 10° 04:19:23 10° 20° (NNE) 2,376 6.5 -29.4°
Maximum altitude 04:24:37 68° 103° (ESE) 859 3.8 -28.7°
Enters shadow 04:24:59 65° 131° (SE) 874 3.7 -28.6°
